SL-12 R/B(2), 17872

Orbit data source: Space-Track

SL-12 R/B(2), 17872 is space debris in GEO originally from a launch on Sat, 11 Sep 1976 UTC launched from the Tyuratam Missile And Space Complex (TTMTR). Debris objects in space refer to the collection of defunct objects orbiting the Earth. Examples of debris include non-operational satellites, rocket bodies, and fragments generated from explosions, collisions, or faulty payload assembly.

Not visible in the next 10 days
Identifier
17872, 1976-092F
Orbit
GEO
Country
Flag of CISCIS
Related business
Manufacturer
NPO Energiya
Mission
Spacecraft
Bus & Motor
BLOK DM, Unknown motor
Mass
2,440 kg wet, 2,440 kg dry
Launch date (UTC)
1976-09-11 (50 years ago)
Launch vehicle
Unknown
Launch site
Tyuratam Missile And Space Complex (TTMTR)
Object type
Payload
Rocket body
Debris
Shape & HBR
Unknown
Radar Cross Section
Large (>1 m²)

Expand to show TLE details & history
Last TLE update: 8 hours ago

TLE from 8 hours ago
0 SL-12 R/B(2)
1 17872U 76092F   26130.12666322 -.00000047  00000-0  00000+0 0  9990
2 17872   3.5584 270.6818 0015670 195.2289 240.2569  1.00221080118540
Epoch: 2026-05-10T03:02Z
TLE epoch observation values (Epoch: 2026-05-10T03:02:23.702Z)
Latitude
3.46342°
Longitude
72.4367°
Altitude
35,832.555 km
Speed
3.072 km/s
True Right ascension
23h 03m 52s
True Declination
3° 27' 36"
Sunlit
Object was in daylight at epoch
Visualization orbit readout
Latitude
Unknown
Longitude
Unknown
Altitude
Unknown
Speed
Unknown
Apparent Right ascension
Unknown
Apparent Declination
Unknown
Sunlit
N/A
Visualization observer readout
Local Sidereal Time
18:56:04
Azimuth
Unknown
Elevation
Unknown
Doppler factor
Unknown
Orbital elements
Apogee altitude
35,867.975 km
Perigee altitude
35,735.783 km
Semi-major axis
42,180.016 km
Eccentricity
0.00157
Inclination
3.5584°
RAAN
270.6818°
Arg. of periapsis
195.2289°
True anomaly
240.10114°
Mean anomaly
240.2569°
Eccentric anomaly
240.17901°
Mean motion
0.25054 °/min
Orbital period
1,436.88 mins
BSTAR
0
Loading maneuver chart data...
Computing Atmospheric mass density...
Loading historical data...
Loading historical data...
Loading historical data...
Loading historical data...
Loading historical data...
Loading historical data...
Loading historical data...

Documentation

Showing up to 5 results
|